Starlink 5117

operational
NORAD ID: 54172 Int'l Des: 2022-141 Owner: SPXS Country: US Constellation: starlink
LEOCIRCULAR

关于 Starlink 5117

正在加载描述...

实时位置

正在加载3D地球...

即将过境

高度历史

Altitude vs Time

uPlot chart will show altitude changes over time

两行轨道根数

1 54172U 22141R 25304.09528595 -.00000041 00000-0 15534-4 0 9994
2 54172 53.2176 225.8676 0001117 110.0485 250.0628 15.08853339166292
Epoch: Oct 31, 2025 • Age: 17 hours

当前状态

高度 541.2 km
速度 7.60 km/s
星下点 32.70°N, 52.06°E
发射日期 Oct 28, 2022
运行时间 3 years
类型 internet

技术详情

分类 Payload
质量 305.00 kg
干质量 290.00 kg
总质量 305.00 kg
长度 0.20 m
直径 2.80 m
跨度 9.00 m
形状 Box + pan
制造商 SPXS
平台类型 Starlink
阶段状态 In Orbit
所有者/国家 SPXS/US

大型星座

Loading constellations...